sat.trackr.live / text

‹ back to catalog

STARLINK-35635

NORAD 66161 · 2025-240R

PAYLOAD ACTIVE UNKNOWN

§ Identity

Operator
Country
US
Launch date
2025-10-25
Launch site
AFWTR
Launch vehicle
Mass (kg)
RCS (m²)

Purposes: comms

External: N2YO · Heavens-Above · Gunter

§ Orbital elements

Epoch: 2026-09-20T22:43:43.659840Z

Period
93.85 min
Inclination
53.1569°
Eccentricity
0.0000790
Mean motion
15.34423571 rev/d
Perigee alt
462.1 km
Apogee alt
463.2 km
Semi-major
6,840.8 km
B*
5.8257e-4
RAAN
233.7088°
Arg perigee
52.4481°
Mean anomaly
307.6593°
Rev number
5,191

§ Raw data

STARLINK-356351 66161U 25240R   26263.94703310  .00019373  00000+0  58257-3 0  99912 66161  53.1569 233.7088 0000790  52.4481 307.6593 15.34423571 51916

JSON: /api/v1/satellites/66161 · /tle

For live sub-satellite position, see the globe view (requires WebGL).

§ Visibility from observer

Set your observer location to see the next 7 days of passes ≥ 10°. The values pass through the URL so the page stays shareable.

No JS? Fill the form by hand. The geolocation button needs JavaScript.